Theta_e
290 290 290 288 286 285 285 286 286 286 287 288 288 288 286 284 284 285 285 284 283 283 283 282 281 281 280 280 279 279 279 279
291 290 290 290 288 285 285 285 285 285 285 286 286 285 284 284 285 285 285 284 283 283 283 282 281 281 280 280 279 279 278 278
288 288 288 287 288 289 288 286 286 286 285 284 284 283 284 285 284 285 284 284 284 283 282 282 281 281 280 279 279 278 277 277
286 286 287 287 287 287 288 288 289 285 284 284 284 283 285 285 285 284 284 283 283 283 282 282 281 281 281 280 279 278 278 277
284 284 285 286 287 286 286 287 287 287 284 284 283 284 285 286 284 283 284 283 283 283 282 282 281 280 280 279 278 278 277 277
283 283 284 284 285 286 286 286 286 285 285 285 285 285 285 284 283 283 283 283 283 282 282 281 281 280 279 279 278 277 276 276
283 283 283 283 284 284 285 285 285 284 284 285 285 284 283 283 283 282 281 282 282 281 281 280 280 284 284 281 278 277 275 274
282 282 282 283 284 283 284 285 284 284 284 284 284 283 283 282 281 282 281 281 281 281 280 279 280 284 285 284 278 277 276 275
281 282 282 283 283 284 284 283 283 283 284 284 283 282 282 280 281 281 281 281 280 280 280 280 279 284 286 284 278 277 276 275
281 281 281 281 281 281 281 281 281 282 283 282 281 281 281 280 279 280 280 279 280 280 280 279 279 283 286 284 277 276 275 275
280 279 279 279 280 279 278 278 279 281 282 283 281 279 278 279 278 279 279 279 279 279 279 278 278 282 286 284 276 274 274 275
277 276 278 279 279 277 276 276 278 280 278 278 280 281 279 277 274 274 277 277 277 276 276 277 277 278 285 285 276 274 274 274
274 275 276 277 276 274 274 276 277 275 275 276 280 282 280 276 275 276 276 274 271 273 272 274 275 279 285 286 279 279 274 274
272 272 273 274 273 271 273 273 272 272 272 273 273 275 280 277 276 275 275 273 272 272 271 271 273 275 283 286 282 280 276 275
271 270 270 271 271 270 270 270 268 268 268 270 270 273 277 277 277 276 275 274 274 273 272 272 272 274 278 282 282 280 277 277
269 269 268 269 268 267 267 266 265 265 265 266 268 269 272 277 276 276 276 277 275 275 274 272 271 273 278 281 280 277 275 275
267 266 265 265 264 264 264 263 262 262 263 264 266 266 269 272 275 279 280 280 281 281 277 275 277 278 280 282 283 280 279 272
263 263 262 261 261 261 261 261 260 260 261 262 263 265 266 269 273 273 275 281 281 281 281 280 277 279 280 282 283 281 278 270
260 259 259 258 258 259 260 259 259 260 261 261 262 263 265 267 270 273 272 271 275 280 281 282 279 279 280 281 282 278 274 269
258 257 257 257 257 259 259 259 259 260 261 262 263 264 265 267 270 272 272 271 273 274 278 280 280 279 280 281 277 275 266 267
Wind_Speed
7 6 9 7 4 4 6 8 8 8 10 10 12 13 9 9 12 11 10 10 13 15 15 14 14 15 14 9 9 11 8 6
19 18 16 15 12 7 7 7 7 7 6 7 7 7 6 10 11 13 12 14 15 16 16 16 16 15 15 14 13 14 11 9
16 17 17 17 17 15 12 7 7 7 7 8 7 8 9 12 13 12 13 13 15 15 15 16 17 17 18 17 16 17 15 14
18 17 16 15 16 17 17 15 15 8 7 7 8 9 14 14 12 12 12 12 13 15 17 17 17 17 18 18 17 17 17 16
15 16 15 14 14 14 16 14 15 16 11 11 9 13 14 12 11 12 14 15 16 17 18 18 18 18 18 17 16 15 14 15
13 13 15 17 16 14 13 13 14 15 16 15 13 11 11 10 10 10 14 14 15 15 16 16 16 15 19 19 18 17 15 14
15 15 14 14 15 15 16 16 14 13 13 15 16 11 10 11 11 12 13 14 13 16 16 15 13 26 32 23 17 18 17 16
13 12 13 16 15 15 15 15 14 13 12 12 14 12 11 8 7 11 12 11 14 14 15 17 16 28 32 31 16 17 17 17
14 14 15 15 15 16 16 15 15 15 13 13 15 15 11 6 10 10 9 12 13 14 15 15 15 29 32 31 16 16 17 17
12 14 16 16 14 15 16 16 16 15 15 14 13 15 14 11 10 8 8 9 11 12 14 16 14 28 30 28 14 14 15 14
12 11 12 15 14 15 16 17 17 17 18 17 15 13 12 12 10 7 8 9 8 10 11 14 14 25 30 27 11 13 11 12
13 13 13 13 13 15 16 16 16 16 18 19 18 16 11 8 4 5 9 7 8 7 7 10 12 16 30 33 13 12 12 11
10 13 14 12 12 17 18 16 15 17 19 18 18 14 10 9 7 7 7 8 6 7 5 6 9 17 27 32 22 19 12 13
10 15 16 13 11 17 18 16 18 18 19 18 19 18 14 11 10 6 7 7 7 8 8 7 7 8 25 31 28 26 11 9
13 15 19 14 13 14 16 15 16 18 19 17 17 17 16 9 8 9 8 9 9 9 10 9 9 9 9 14 16 23 16 20
14 17 21 18 17 15 15 15 17 18 17 17 14 16 15 13 10 11 11 12 9 10 9 9 11 13 19 16 11 13 16 15
18 19 21 19 19 17 15 14 17 19 15 13 12 12 12 13 12 20 24 20 25 22 15 10 16 22 28 29 24 28 32 13
20 20 20 21 22 18 16 16 17 18 17 14 14 12 12 13 12 11 9 25 25 25 25 24 19 25 30 31 30 31 29 10
20 20 20 21 22 19 17 17 17 18 22 15 14 13 13 13 14 10 9 8 9 22 21 24 22 25 28 31 29 18 18 10
21 20 19 20 20 18 17 18 19 16 13 14 13 12 15 14 14 10 9 8 7 5 14 16 22 23 28 33 14 14 12 11
Wind_Direction
328 335 332 337 339 271 235 220 208 210 216 219 210 204 194 168 184 187 184 174 173 185 189 186 184 180 176 179 175 177 178 175
8 17 17 6 6 340 327 314 301 288 263 234 221 222 187 192 196 194 182 180 181 184 190 187 187 188 186 184 174 183 177 174
9 6 15 9 4 3 356 323 282 265 244 234 218 200 205 210 208 201 198 190 185 183 187 190 191 191 192 190 183 180 182 181
5 5 2 1 358 353 353 348 345 308 270 252 232 211 223 221 211 200 199 194 192 185 187 191 196 194 201 193 187 186 185 181
1 356 354 352 349 352 342 345 339 333 312 277 246 233 234 232 210 201 196 191 195 198 197 189 191 192 200 194 188 187 184 179
352 351 347 343 342 345 336 335 335 329 326 314 279 258 248 231 216 205 205 210 208 197 203 192 192 191 193 193 187 182 180 180
339 343 347 337 331 332 335 332 331 326 321 316 310 279 237 231 218 204 202 210 205 209 199 198 199 200 197 192 185 182 180 179
328 339 335 328 326 326 326 325 322 319 318 324 317 298 276 251 223 222 209 202 207 208 207 205 206 203 201 197 189 183 184 178
330 331 328 318 324 325 325 324 321 320 322 328 328 323 300 259 246 233 217 210 206 210 212 209 210 206 201 197 191 187 187 183
315 317 315 314 325 321 321 319 317 316 317 321 328 323 314 286 259 249 238 221 216 213 206 208 214 206 200 190 188 185 178 176
289 292 299 306 317 317 316 317 318 319 321 321 318 309 304 288 273 252 238 234 223 220 212 204 201 203 202 190 179 178 171 168
301 300 296 299 303 304 310 306 308 316 316 313 305 295 286 272 235 233 234 204 215 207 207 202 197 197 202 190 187 178 171 171
296 293 296 300 304 300 296 302 309 312 303 302 306 300 291 264 233 224 224 221 174 179 187 200 195 202 204 196 187 185 171 173
282 288 292 296 297 293 295 308 306 301 301 304 302 296 288 272 259 219 202 220 217 188 187 190 186 203 208 199 184 191 171 161
288 286 288 291 290 281 295 301 300 295 294 295 294 293 291 258 247 237 210 204 214 219 203 185 183 195 204 195 181 183 172 165
286 287 286 295 291 293 298 301 292 290 289 288 287 287 287 271 242 238 231 214 211 213 210 192 195 204 194 194 178 173 162 147
289 289 289 292 291 295 295 291 287 286 286 282 284 286 285 285 267 247 244 237 234 229 207 206 205 193 199 200 188 175 163 152
292 292 294 294 292 295 290 282 276 277 282 283 281 281 281 278 270 260 252 246 238 234 230 216 203 198 197 199 186 172 163 169
295 292 290 288 287 290 285 278 274 272 273 273 273 272 272 268 271 249 240 236 230 230 231 223 208 206 201 195 185 176 167 166
290 290 287 286 288 287 283 279 277 275 271 268 265 264 264 268 276 237 231 229 232 200 230 207 204 212 204 194 189 177 156 155